Three Rivers, MI

5:39 AM EST on November 25, 2017 (GMT -0500)
Three Rivers Municipal-Haines

Weather History for KHAI - June, 2013

Change the Weather History Date:

Saturday, June 22, 2013

  Actual Average Record
Temperature  
Mean Temperature 74 °F -  
Max Temperature 84 °F 81 °F 99 °F (1988)
Min Temperature 64 °F 57 °F 37 °F (1992)
Cooling Degree Days 9    
Growing Degree Days 24 (Base 50)    
Moisture  
Dew Point 67 °F    
Average Humidity 77    
Maximum Humidity 87    
Minimum Humidity 61    
Precipitation  
Precipitation 0.00 in - - ()
Sea Level Pressure  
Sea Level Pressure 30.07 in    
Wind  
Wind Speed 3 mph (SSW)    
Max Wind Speed 9 mph    
Max Gust Speed 17 mph    
Visibility 10 miles    
Events      
Averages and records for this station are not official NWS values.
T = Trace of Precipitation, MM = Missing Value Source: NWS Daily Summary

Daily Weather History Graph

Daily Weather History Graph

Search for Another Location

Airport or City:

Trip Planner

Search our weather history database for the weather conditions in past years. The results will help you decide how hot, cold, wet, or windy it might be!

Date:

Astronomy

Jun. 22, 2013 Rise Set
Actual Time 6:07 AM EDT 9:21 PM EDT
Civil Twilight 5:32 AM EDT 9:56 PM EDT
Nautical Twilight 4:48 AM EDT 10:40 PM EDT
Astronomical Twilight 3:54 AM EDT 11:34 PM EDT
Moon 8:34 PM EDT (6/22) 5:20 AM EDT (6/22)
Length of Visible Light 16h 23m
Length of Day
15h 14m
Waxing Gibbous, 99% of the Moon is Illuminated
Jun 22
Waxing Gibbous
Jun 23
Full
Jun 30
Last Quarter
Jul 8
New
Jul 15
First Quarter

Hourly Weather History & Observations

Time (EDT) Temp. Heat Index Dew Point Humidity Pressure Visibility Wind Dir Wind Speed Gust Speed Precip Events Conditions
12:15 AM 66.2 °F - 61.3 °F 84% 30.12 in 10.0 mi Calm Calm - N/A   Clear
12:34 AM 64.9 °F - 61.0 °F 87% 30.11 in 10.0 mi Calm Calm - N/A   Clear
12:55 AM 67.3 °F - 62.8 °F 85% 30.11 in 10.0 mi Calm Calm - N/A   Scattered Clouds
1:15 AM 67.3 °F - 63.0 °F 86% 30.10 in 10.0 mi Calm Calm - N/A   Overcast
1:34 AM 67.1 °F - 63.1 °F 87% 30.09 in 10.0 mi South 5.8 mph - N/A   Mostly Cloudy
1:55 AM 67.3 °F - 63.0 °F 86% 30.09 in 10.0 mi South 4.6 mph - N/A   Scattered Clouds
2:15 AM 67.1 °F - 63.1 °F 87% 30.08 in 10.0 mi South 4.6 mph - N/A   Mostly Cloudy
2:34 AM 67.3 °F - 63.1 °F 87% 30.07 in 10.0 mi SSW 4.6 mph - N/A   Mostly Cloudy
2:55 AM 66.6 °F - 62.6 °F 87% 30.06 in 10.0 mi South 5.8 mph - N/A   Scattered Clouds
3:15 AM 66.6 °F - 62.6 °F 87% 30.05 in 10.0 mi South 4.6 mph - N/A   Scattered Clouds
3:34 AM 67.3 °F - 62.6 °F 85% 30.05 in 10.0 mi South 5.8 mph - N/A   Mostly Cloudy
3:55 AM 67.3 °F - 63.0 °F 86% 30.05 in 10.0 mi South 5.8 mph - N/A   Mostly Cloudy
4:15 AM 68.0 °F - 63.1 °F 84% 30.05 in 10.0 mi SSW 5.8 mph - N/A   Overcast
4:35 AM 68.0 °F - 63.0 °F 84% 30.04 in 10.0 mi SSW 5.8 mph - N/A   Overcast
4:55 AM 67.5 °F - 63.0 °F 85% 30.04 in 10.0 mi SSW 4.6 mph - N/A   Mostly Cloudy
5:15 AM 67.5 °F - 63.0 °F 85% 30.05 in 10.0 mi SSW 5.8 mph - N/A   Scattered Clouds
5:35 AM 68.4 °F - 63.5 °F 84% 30.05 in 10.0 mi SSW 6.9 mph - N/A   Mostly Cloudy
5:55 AM 68.9 °F - 63.7 °F 83% 30.04 in 10.0 mi SSW 6.9 mph - N/A   Overcast
6:14 AM 70.2 °F - 64.0 °F 81% 30.05 in 10.0 mi WSW 8.1 mph - N/A   Mostly Cloudy
6:35 AM 70.7 °F - 64.4 °F 80% 30.06 in 10.0 mi SW 6.9 mph - N/A   Mostly Cloudy
6:55 AM 70.7 °F - 64.6 °F 81% 30.07 in 10.0 mi SW 8.1 mph - N/A   Mostly Cloudy
7:14 AM 70.7 °F - 64.8 °F 81% 30.07 in 10.0 mi WSW 5.8 mph - N/A   Scattered Clouds
7:35 AM 70.9 °F - 64.8 °F 81% 30.08 in 10.0 mi Calm Calm - N/A   Scattered Clouds
7:55 AM 70.9 °F - 65.3 °F 82% 30.08 in 10.0 mi SW 5.8 mph - N/A   Clear
8:14 AM 71.2 °F - 65.5 °F 82% 30.08 in 10.0 mi SW 3.5 mph - N/A   Clear
8:35 AM 71.6 °F - 66.0 °F 82% 30.09 in 10.0 mi SSW 6.9 mph - N/A   Clear
8:55 AM 72.5 °F - 66.4 °F 81% 30.09 in 10.0 mi WSW 8.1 mph 17.3 mph N/A   Clear
9:15 AM 73.9 °F - 67.1 °F 79% 30.10 in 10.0 mi West 3.5 mph - N/A   Clear
9:35 AM 74.8 °F - 67.8 °F 79% 30.11 in 10.0 mi West 5.8 mph - N/A   Clear
9:55 AM 75.6 °F - 67.5 °F 76% 30.11 in 10.0 mi WSW 6.9 mph - N/A   Clear
10:15 AM 75.6 °F - 68.0 °F 77% 30.10 in 10.0 mi SW 5.8 mph - N/A   Clear
10:35 AM 75.7 °F - 68.2 °F 77% 30.10 in 10.0 mi West 4.6 mph - N/A   Scattered Clouds
10:54 AM 76.1 °F - 68.5 °F 77% 30.10 in 10.0 mi West 5.8 mph - N/A   Mostly Cloudy
11:15 AM 76.6 °F - 68.9 °F 77% 30.10 in 7.0 mi Calm Calm - N/A   Scattered Clouds
11:35 AM 77.5 °F - 68.9 °F 75% 30.11 in 10.0 mi West 3.5 mph - N/A   Mostly Cloudy
11:54 AM 76.5 °F - 67.5 °F 74% 30.10 in 10.0 mi Calm Calm - N/A   Mostly Cloudy
12:15 PM 77.2 °F - 69.1 °F 76% 30.09 in 10.0 mi SSW 4.6 mph - N/A   Scattered Clouds
12:35 PM 78.3 °F - 68.0 °F 71% 30.11 in 10.0 mi Calm Calm - N/A   Scattered Clouds
12:54 PM 78.8 °F - 69.1 °F 72% 30.10 in 10.0 mi SSW 3.5 mph - N/A   Scattered Clouds
1:15 PM 79.0 °F - 69.3 °F 72% 30.10 in 10.0 mi Calm Calm - N/A   Scattered Clouds
1:35 PM 80.1 °F 83.0 °F 69.4 °F 70% 30.10 in 10.0 mi Calm Calm - N/A   Scattered Clouds
1:55 PM 80.2 °F 83.2 °F 69.1 °F 69% 30.10 in 10.0 mi Calm Calm - N/A   Scattered Clouds
2:15 PM 81.5 °F 84.9 °F 69.8 °F 67% 30.10 in 10.0 mi Calm Calm - N/A   Overcast
2:35 PM 80.4 °F 83.4 °F 68.9 °F 68% 30.10 in 10.0 mi Calm Calm - N/A   Overcast
2:55 PM 80.8 °F 84.1 °F 69.6 °F 69% 30.10 in 10.0 mi West 3.5 mph - N/A   Overcast
3:15 PM 80.2 °F 83.0 °F 68.5 °F 67% 30.08 in 10.0 mi Calm Calm - N/A   Scattered Clouds
3:34 PM 80.6 °F 83.6 °F 69.3 °F 68% 30.07 in 10.0 mi Calm Calm - N/A   Clear
3:55 PM 81.1 °F 84.4 °F 69.3 °F 67% 30.05 in 10.0 mi Calm Calm - N/A   Clear
4:15 PM 81.7 °F 84.9 °F 69.1 °F 65% 30.04 in 10.0 mi SE 3.5 mph - N/A   Clear
4:34 PM 82.9 °F 86.0 °F 68.2 °F 61% 30.03 in 10.0 mi Calm Calm - N/A   Clear
4:55 PM 82.6 °F 86.1 °F 69.4 °F 64% 30.02 in 10.0 mi Calm Calm - N/A   Clear
5:15 PM 81.7 °F 85.2 °F 69.8 °F 67% 30.01 in 10.0 mi ENE 3.5 mph - N/A   Clear
5:34 PM 81.1 °F 84.7 °F 70.2 °F 69% 30.00 in 10.0 mi South 4.6 mph - N/A   Clear
5:55 PM 82.2 °F 86.4 °F 70.9 °F 68% 30.00 in 10.0 mi SSW 5.8 mph - N/A   Clear
6:15 PM 84.6 °F 89.4 °F 70.7 °F 63% 30.01 in 10.0 mi SW 5.8 mph - N/A   Clear
6:35 PM 83.8 °F 88.6 °F 71.1 °F 65% 30.02 in 10.0 mi SW 6.9 mph - N/A   Scattered Clouds
6:55 PM 83.3 °F 88.2 °F 71.4 °F 67% 30.03 in 10.0 mi SW 6.9 mph - N/A   Scattered Clouds
7:15 PM 82.4 °F 86.7 °F 71.1 °F 68% 30.03 in 10.0 mi SW 5.8 mph - N/A   Scattered Clouds
7:35 PM 81.0 °F 84.7 °F 70.7 °F 71% 30.03 in 10.0 mi West 4.6 mph - N/A   Clear
7:55 PM 80.1 °F 83.4 °F 70.5 °F 73% 30.03 in 10.0 mi WSW 3.5 mph - N/A   Clear
8:14 PM 79.3 °F - 70.7 °F 75% 30.02 in 10.0 mi Calm Calm - N/A   Clear
8:35 PM 79.0 °F - 71.1 °F 77% 30.02 in 7.0 mi Calm Calm - N/A   Clear
8:55 PM 78.3 °F - 71.4 °F 79% 30.04 in 7.0 mi South 9.2 mph - N/A   Scattered Clouds
9:14 PM 77.7 °F - 70.5 °F 78% 30.05 in 10.0 mi SSW 3.5 mph - N/A   Scattered Clouds
9:35 PM 77.0 °F - 69.8 °F 78% 30.05 in 5.0 mi SSW 5.8 mph - N/A   Haze
9:55 PM 76.1 °F - 68.9 °F 78% 30.05 in 7.0 mi South 5.8 mph - N/A   Scattered Clouds
10:14 PM 75.2 °F - 68.0 °F 78% 30.05 in 10.0 mi Calm Calm - N/A   Scattered Clouds
10:35 PM 75.2 °F - 67.6 °F 77% 30.06 in 10.0 mi Calm Calm - N/A   Clear
10:55 PM 74.3 °F - 68.0 °F 81% 30.06 in 10.0 mi South 4.6 mph - N/A   Clear
11:15 PM 74.3 °F - 67.8 °F 80% 30.07 in 10.0 mi South 5.8 mph - N/A   Clear
11:35 PM 74.1 °F - 67.6 °F 80% 30.07 in 10.0 mi SSW 4.6 mph - N/A   Clear
11:55 PM 73.6 °F - 67.6 °F 82% 30.08 in 10.0 mi SSW 5.8 mph - N/A   Clear